SV2JU-2 Weather Reports


time (UTC)temp
C
wind
direction
speed
KPH
gust
KPH
rain 1hr
cm
rain 24hr
cm
rain mn
cm
humidity
%
barometer
mb
20260507182211 18 0 0.0 0.0 0.00 0.00 0.00 42 1017.0
20260507180940 19 0 0.0 0.0 0.00 0.00 0.00 41 1017.0
20260507175711 19 0 0.0 0.0 0.00 0.00 0.00 40 1017.0
20260507174440 19 247 1.6 6.4 0.00 0.00 0.00 40 1017.0
20260507173210 19 0 0.0 0.0 0.00 0.00 0.00 39 1016.0
20260507171939 19 0 0.0 0.0 0.00 0.00 0.00 37 1016.0
20260507170710 19 0 0.0 0.0 0.00 0.00 0.00 39 1017.0
20260507165440 20 0 0.0 0.0 0.00 0.00 0.00 39 1017.0
20260507164210 20 0 0.0 0.0 0.00 0.00 0.00 38 1017.0
20260507162939 20 0 0.0 0.0 0.00 0.00 0.00 39 1017.0
20260507161710 20 181 0.0 3.2 0.00 0.00 0.00 39 1017.0
20260507160439 20 161 3.2 4.8 0.00 0.00 0.00 38 1017.0
20260507153939 20 0 0.0 0.0 0.00 0.00 0.00 38 1017.0
20260507152710 20 0 0.0 0.0 0.00 0.00 0.00 38 1017.0
20260507151439 20 0 0.0 0.0 0.00 0.00 0.00 38 1017.0
20260507150210 20 266 0.0 3.2 0.00 0.00 0.00 37 1017.0
20260507133209 21 266 0.0 3.2 0.00 0.00 0.00 42 1017.0
20260507131935 20 0 0.0 0.0 0.00 0.00 0.00 43 1017.0
20260507130709 20 164 0.0 3.2 0.00 0.00 0.00 44 1017.0
20260507125435 20 0 0.0 0.0 0.00 0.00 0.00 43 1017.0
20260507124206 20 0 0.0 0.0 0.00 0.00 0.00 43 1017.0
20260507122936 20 5 3.2 4.8 0.00 0.00 0.00 48 1018.0
20260507121706 20 5 3.2 4.8 0.00 0.00 0.00 47 1018.0
20260507120435 20 5 3.2 4.8 0.00 0.00 0.00 47 1018.0
20260507115206 19 18 3.2 4.8 0.00 0.00 0.00 46 1018.0
20260507113935 20 0 0.0 0.0 0.00 0.00 0.00 47 1018.0
20260507112708 20 0 0.0 0.0 0.00 0.00 0.00 47 1019.0
20260507111435 20 0 0.0 0.0 0.00 0.00 0.00 46 1019.0
20260507110206 20 0 0.0 0.0 0.00 0.00 0.00 45 1019.0
20260507104935 20 0 0.0 0.0 0.00 0.00 0.00 40 1019.0
20260507103708 20 0 0.0 0.0 0.00 0.00 0.00 33 1019.0
20260507102435 20 0 0.0 0.0 0.00 0.00 0.00 29 1019.0
20260507101206 21 278 0.0 3.2 0.00 0.00 0.00 29 1019.0
20260507095935 21 265 1.6 6.4 0.00 0.00 0.00 29 1019.0
20260507094706 21 264 3.2 8.0 0.00 0.00 0.00 29 1018.0
20260507093435 21 265 0.0 4.8 0.00 0.00 0.00 28 1018.0
20260507092206 21 0 0.0 0.0 0.00 0.00 0.00 28 1018.0
20260507090935 21 339 0.0 4.8 0.00 0.00 0.00 29 1018.0
20260507085706 21 256 0.0 4.8 0.00 0.00 0.00 30 1018.0
20260507084435 21 278 0.0 4.8 0.00 0.00 0.00 30 1018.0
20260507083206 21 270 0.0 3.2 0.00 0.00 0.00 31 1017.0
20260507081935 21 258 0.0 4.8 0.00 0.00 0.00 31 1017.0
20260507080706 21 242 0.0 4.8 0.00 0.00 0.00 30 1017.0
20260507075435 21 252 1.6 6.4 0.00 0.00 0.00 30 1017.0
20260507074206 21 0 0.0 0.0 0.00 0.00 0.00 30 1017.0
20260507072935 21 257 0.0 3.2 0.00 0.00 0.00 29 1017.0
20260507071708 22 0 0.0 0.0 0.00 0.00 0.00 29 1017.0
20260507070435 21 0 0.0 0.0 0.00 0.00 0.00 29 1017.0
20260507065205 21 265 0.0 3.2 0.00 0.00 0.00 29 1017.0
20260507063935 22 259 0.0 4.8 0.00 0.00 0.00 28 1017.0
20260507062705 22 264 0.0 3.2 0.00 0.00 0.00 26 1017.0
20260507061435 23 252 0.0 3.2 0.00 0.00 0.00 27 1017.0
20260507060206 23 0 0.0 0.0 0.00 0.00 0.00 27 1016.0
20260507054935 23 0 0.0 0.0 0.00 0.00 0.00 29 1017.0
20260507053705 22 250 0.0 3.2 0.00 0.00 0.00 30 1016.0
20260507052435 22 0 0.0 0.0 0.00 0.00 0.00 30 1016.0
20260507051205 21 0 0.0 0.0 0.00 0.00 0.00 31 1016.0
20260507045935 20 356 0.0 3.2 0.00 0.00 0.00 34 1016.0
20260507044705 20 0 0.0 0.0 0.00 0.00 0.00 39 1016.0
20260507043435 18 0 0.0 0.0 0.00 0.00 0.00 41 1016.0
20260507042205 17 0 0.0 0.0 0.00 0.00 0.00 44 1016.0
20260507040934 16 0 0.0 0.0 0.00 0.00 0.00 46 1016.0
20260507035705 16 0 0.0 0.0 0.00 0.00 0.00 46 1016.0
20260507034434 16 0 0.0 0.0 0.00 0.00 0.00 46 1016.0
20260507033205 16 0 0.0 0.0 0.00 0.00 0.00 47 1016.0
20260507031934 16 0 0.0 0.0 0.00 0.00 0.00 48 1016.0
20260507030706 16 0 0.0 0.0 0.00 0.00 0.00 49 1016.0
20260507025434 16 0 0.0 0.0 0.00 0.00 0.00 49 1016.0
20260507024205 16 0 0.0 0.0 0.00 0.00 0.00 48 1016.0
20260507022934 16 0 0.0 0.0 0.00 0.00 0.00 49 1015.0
20260507021705 16 6 0.0 3.2 0.00 0.00 0.00 50 1016.0
20260507020434 16 0 0.0 0.0 0.00 0.00 0.00 50 1015.0
20260507015205 16 9 0.0 3.2 0.00 0.00 0.00 50 1015.0
20260507013934 16 12 1.6 4.8 0.00 0.00 0.00 50 1015.0
20260507012705 16 8 1.6 6.4 0.00 0.00 0.00 50 1015.0
20260507011434 16 0 0.0 0.0 0.00 0.00 0.00 50 1015.0
20260507010205 16 0 0.0 0.0 0.00 0.00 0.00 50 1015.0
20260507004934 17 0 0.0 0.0 0.00 0.00 0.00 49 1015.0
20260507003705 17 0 0.0 0.0 0.00 0.00 0.00 49 1015.0
20260507002434 17 1 0.0 3.2 0.00 0.00 0.00 49 1015.0
20260507001205 17 11 3.2 4.8 0.00 0.00 0.00 49 1015.0
20260506235934 17 9 1.6 4.8 0.00 0.00 0.00 49 1015.0
20260506234705 17 356 0.0 3.2 0.00 0.00 0.00 50 1015.0
20260506233434 17 0 0.0 0.0 0.00 0.00 0.00 50 1015.0
20260506232205 17 0 0.0 0.0 0.00 0.00 0.00 50 1015.0
20260506230934 17 0 0.0 0.0 0.00 0.00 0.00 49 1015.0
20260506225705 17 0 0.0 0.0 0.00 0.00 0.00 49 1015.0
20260506224434 17 0 0.0 0.0 0.00 0.00 0.00 49 1015.0
20260506223205 17 0 0.0 0.0 0.00 0.00 0.00 49 1015.0
20260506221934 17 0 0.0 0.0 0.00 0.00 0.00 49 1015.0
20260506220705 17 0 0.0 0.0 0.00 0.00 0.00 50 1015.0
20260506215434 18 0 0.0 0.0 0.00 0.00 0.00 50 1015.0
20260506214205 18 0 0.0 0.0 0.00 0.00 0.00 50 1015.0
20260506212934 18 1 0.0 3.2 0.00 0.00 0.00 50 1016.0
20260506211705 18 14 0.0 3.2 0.00 0.00 0.00 49 1016.0
20260506210434 18 14 0.0 3.2 0.00 0.00 0.00 49 1016.0
20260506205205 18 0 0.0 0.0 0.00 0.00 0.00 49 1016.0
20260506202704 18 0 0.0 0.0 0.00 0.00 0.00 47 1015.0
20260506201434 18 0 0.0 0.0 0.00 0.00 0.00 45 1015.0
20260506200207 19 0 0.0 0.0 0.00 0.00 0.00 44 1015.0
20260506194936 19 0 0.0 0.0 0.00 0.00 0.00 42 1015.0
20260506193707 19 0 0.0 0.0 0.00 0.00 0.00 41 1015.0
20260506192436 19 0 0.0 0.0 0.00 0.00 0.00 41 1015.0
20260506191204 20 0 0.0 0.0 0.00 0.00 0.00 41 1015.0
20260506185934 20 356 0.0 4.8 0.00 0.00 0.00 40 1015.0
20260506184704 20 0 0.0 0.0 0.00 0.00 0.00 39 1015.0
20260506183433 20 0 0.0 0.0 0.00 0.00 0.00 39 1015.0